Wind_Speed
64 60 57 52 48 46 43 40 35 27 20 23 25 26 27 30 40 54 72 87 99 109 118 126 131 133 131 128 124 120 115 111 106 101 96 91 82 74
62 58 54 51 47 44 41 38 35 30 22 20 23 24 26 28 35 46 62 78 91 102 111 120 127 131 132 130 126 121 117 112 108 103 98 93 87 78
60 56 52 48 45 43 40 36 34 31 25 19 21 22 23 25 31 40 54 68 82 94 103 113 122 128 131 131 128 123 119 114 110 105 100 95 89 82
58 54 50 46 44 41 38 35 33 31 27 21 20 20 19 21 27 36 47 60 72 84 95 104 115 124 129 130 129 125 121 116 112 108 102 97 92 86
56 52 48 45 42 40 37 35 32 30 27 23 19 18 17 17 22 31 41 53 63 75 86 96 105 116 125 129 129 127 123 118 113 109 105 100 95 89
55 51 47 43 41 38 36 33 31 29 26 23 19 17 15 15 19 27 37 47 57 66 76 87 96 107 118 126 128 126 123 120 116 112 107 102 97 92
54 50 46 42 40 37 35 33 30 28 25 22 19 17 14 13 18 25 34 43 51 59 68 78 87 98 110 120 126 127 125 122 118 114 109 104 99 94
53 49 45 41 38 36 35 33 31 28 25 22 19 16 13 12 16 24 32 40 46 54 61 69 79 88 100 113 121 125 125 123 119 115 111 106 102 97
52 48 44 40 36 34 33 32 31 28 25 22 18 15 12 11 16 24 31 38 44 50 55 61 70 79 91 104 115 122 124 123 120 117 112 108 104 99
52 48 44 40 36 33 31 30 29 27 25 22 18 13 11 11 15 23 31 36 41 46 50 54 63 72 83 95 107 117 123 123 121 118 114 110 106 101
51 48 45 40 36 32 30 29 28 26 25 22 18 13 10 10 15 22 30 36 39 43 46 50 56 65 76 87 99 111 118 122 121 118 115 111 107 103
50 48 45 41 36 32 29 27 26 25 24 22 17 12 9 9 13 21 29 35 38 40 43 47 52 59 68 80 91 104 113 119 119 118 115 112 108 105
49 47 45 41 36 32 29 26 25 23 22 20 16 12 8 8 13 20 28 33 37 39 41 45 49 55 63 74 85 97 108 114 117 116 115 113 110 106
48 46 44 42 37 32 28 25 23 22 21 19 16 12 7 6 12 19 26 31 36 38 39 42 46 52 59 69 80 91 102 110 114 114 112 112 110 107
48 46 44 43 39 32 28 25 23 21 19 17 15 12 7 4 10 17 24 29 34 36 38 40 44 49 57 65 75 86 96 105 110 111 109 109 109 106
47 45 44 43 41 35 29 26 22 20 18 16 14 12 7 2 8 15 22 27 31 34 36 40 44 49 55 63 73 82 92 99 106 108 106 106 107 106
46 45 44 43 40 36 29 25 22 19 17 15 13 10 6 1 5 12 18 23 27 32 35 38 42 49 56 63 71 80 88 95 102 104 104 103 102 102
45 44 42 42 39 36 29 24 21 18 16 13 11 8 5 2 6 10 15 19 24 29 33 37 42 49 56 62 70 78 86 92 97 100 100 99 99 98
43 43 42 41 39 36 30 24 20 17 14 11 8 6 5 4 8 11 15 19 22 26 30 34 41 47 54 61 69 77 83 89 93 96 96 95 94 93
42 42 41 40 39 36 31 25 20 15 12 9 6 4 4 4 7 11 14 18 21 25 29 34 40 46 52 60 69 77 83 88 91 92 91 90 90 89
41 41 40 40 39 36 32 26 20 14 10 6 3 2 3 5 7 10 14 18 22 26 30 33 37 43 51 60 67 75 81 85 87 88 87 88 89 88
39 39 39 39 38 36 32 27 20 14 8 4 1 2 4 6 8 10 15 19 23 27 30 34 38 42 50 60 68 75 79 83 84 84 84 84 84 85
38 38 38 38 38 36 33 28 21 14 7 2 1 4 6 8 9 12 16 20 23 26 29 34 37 41 49 58 67 75 79 81 82 80 79 79 79 78
Wind_Direction
338 337 337 337 336 334 333 331 331 330 315 294 283 273 259 243 228 219 213 209 209 208 208 207 206 205 205 205 206 205 205 205 205 204 204 203 204 205
339 339 339 339 338 336 334 332 332 332 327 302 290 279 264 247 232 222 215 211 209 208 208 208 206 205 205 205 205 205 205 205 205 204 204 204 204 204
341 340 340 341 340 338 336 334 333 332 332 317 300 288 272 251 234 223 216 212 210 209 209 209 207 205 205 204 204 204 204 204 204 204 204 204 204 204
343 342 342 342 341 340 339 337 335 333 332 327 309 296 279 256 235 223 216 211 210 209 209 209 208 206 205 204 203 203 203 204 204 204 203 204 204 205
344 344 344 344 343 342 341 339 337 334 332 330 318 303 285 259 234 221 214 210 209 209 209 210 209 208 206 204 203 203 203 203 203 203 203 203 204 204
346 346 345 345 345 344 343 341 339 336 333 330 323 309 289 260 231 216 210 207 207 208 209 209 210 209 207 205 203 202 202 202 203 203 203 203 203 204
347 347 347 346 347 346 346 345 342 339 335 330 324 313 292 257 226 211 205 204 204 206 207 208 210 209 208 206 203 202 202 202 202 202 202 203 203 204
349 348 348 347 347 347 346 346 345 343 339 332 325 314 293 255 223 208 201 200 201 204 206 207 209 209 209 207 205 202 202 202 202 202 202 202 203 204
349 349 348 347 346 346 346 346 344 343 340 335 327 314 293 254 220 205 199 198 199 201 203 206 208 209 209 208 206 203 202 201 201 202 202 202 203 203
350 350 349 348 346 346 345 345 345 343 340 336 329 315 291 253 220 205 198 197 198 199 201 203 207 208 209 208 207 204 202 201 201 201 202 202 203 204
350 350 350 349 347 346 346 345 344 343 341 338 332 319 288 250 219 204 198 196 196 197 198 201 205 207 208 208 207 205 203 201 201 201 201 202 203 204
351 351 351 350 348 346 345 345 344 343 342 340 335 322 292 248 217 204 198 195 195 195 196 199 203 206 207 207 207 205 203 201 200 201 201 201 202 204
352 352 351 351 349 347 346 345 346 346 345 345 341 330 299 247 215 202 197 195 194 195 196 198 201 203 205 205 205 205 203 201 200 200 201 202 202 204
352 353 353 353 351 349 348 347 347 347 347 347 345 339 316 245 212 200 196 195 195 195 196 197 200 201 202 203 203 203 203 201 200 200 201 202 202 203
352 353 354 354 354 352 350 350 348 347 347 348 347 345 332 251 208 199 196 194 194 195 196 196 197 198 199 199 200 201 201 201 200 199 200 202 203 203
352 353 354 355 356 355 353 351 350 349 348 349 350 352 351 271 197 194 192 192 194 196 196 196 196 196 195 195 197 198 198 199 198 198 199 202 203 203
352 354 355 356 356 355 353 351 351 350 351 352 354 358 4 34 179 187 190 191 193 194 195 195 194 192 191 192 192 194 196 197 197 197 198 201 203 203
352 354 356 357 357 357 354 352 351 351 352 355 0 9 18 99 151 166 175 179 183 187 190 190 190 188 187 188 189 190 192 193 195 196 197 199 201 203
352 354 356 357 357 357 357 354 352 352 353 358 8 23 46 115 149 158 164 170 174 178 182 182 182 183 184 184 185 186 188 189 191 193 195 197 199 201
352 354 356 357 358 358 358 356 354 353 354 1 19 45 76 121 152 160 163 164 169 174 175 177 179 180 181 181 182 183 184 186 189 192 194 195 198 201
352 354 356 357 358 358 359 358 356 354 354 2 25 75 110 137 154 164 168 166 168 170 170 171 175 178 178 178 179 179 181 183 186 189 192 194 196 200
351 353 355 357 358 359 359 358 356 355 351 352 37 134 145 150 159 166 170 170 171 173 172 170 173 175 175 175 176 177 178 180 183 187 190 192 196 198
351 353 355 357 358 358 359 359 357 355 351 326 189 163 160 160 162 164 167 169 169 169 171 170 171 172 173 174 174 174 175 178 181 184 187 191 195 198
Height
5369 5353 5338 5324 5311 5299 5289 5279 5273 5268 5263 5256 5252 5249 5247 5248 5252 5258 5270 5285 5303 5324 5346 5370 5397 5425 5454 5483 5510 5536 5561 5584 5607 5628 5648 5666 5682 5696
5364 5349 5334 5320 5307 5296 5285 5276 5268 5262 5258 5253 5247 5244 5242 5243 5246 5252 5261 5275 5291 5310 5331 5354 5379 5406 5435 5463 5492 5520 5546 5570 5594 5615 5635 5654 5671 5686
5359 5344 5330 5316 5304 5293 5283 5274 5265 5258 5253 5249 5243 5240 5237 5238 5241 5246 5255 5267 5283 5300 5319 5339 5363 5389 5417 5447 5476 5503 5530 5555 5578 5601 5622 5642 5660 5677
5356 5341 5327 5314 5302 5291 5280 5271 5263 5256 5250 5245 5241 5236 5234 5234 5236 5241 5249 5261 5275 5291 5308 5328 5349 5374 5401 5430 5459 5487 5514 5539 5563 5587 5610 5631 5649 5664
5352 5338 5324 5312 5300 5289 5279 5270 5261 5254 5248 5243 5239 5234 5232 5231 5233 5238 5245 5256 5269 5284 5300 5318 5338 5361 5386 5413 5442 5470 5499 5528 5553 5575 5595 5615 5635 5653
5349 5335 5321 5310 5298 5288 5278 5269 5261 5253 5247 5241 5237 5233 5230 5229 5231 5235 5243 5253 5265 5278 5293 5310 5329 5349 5373 5399 5430 5459 5486 5510 5534 5558 5582 5603 5623 5641
5345 5332 5319 5307 5297 5286 5277 5268 5260 5253 5246 5241 5236 5232 5230 5228 5230 5233 5241 5250 5261 5274 5288 5304 5322 5342 5363 5388 5414 5441 5469 5496 5521 5546 5569 5591 5611 5630
5343 5330 5318 5306 5296 5286 5276 5267 5259 5252 5245 5240 5235 5232 5229 5228 5229 5233 5239 5248 5259 5271 5284 5299 5315 5334 5354 5377 5402 5429 5456 5482 5508 5533 5556 5578 5599 5618
5341 5328 5316 5305 5295 5285 5276 5268 5260 5252 5245 5240 5235 5231 5229 5228 5229 5233 5239 5247 5257 5268 5281 5296 5311 5328 5345 5367 5390 5416 5442 5469 5495 5520 5544 5566 5587 5607
5339 5327 5315 5304 5293 5284 5276 5267 5260 5252 5245 5240 5235 5231 5229 5228 5229 5232 5238 5246 5255 5266 5278 5292 5305 5321 5337 5357 5379 5404 5430 5456 5482 5507 5531 5555 5576 5596
5337 5325 5314 5303 5292 5283 5275 5267 5259 5252 5245 5239 5234 5230 5228 5227 5228 5232 5237 5245 5254 5264 5276 5288 5301 5315 5330 5350 5371 5394 5419 5445 5471 5496 5520 5543 5565 5584
5336 5324 5312 5301 5291 5282 5274 5266 5259 5252 5245 5239 5234 5230 5227 5227 5228 5231 5236 5244 5252 5262 5273 5284 5295 5308 5325 5342 5362 5384 5409 5435 5460 5485 5508 5531 5552 5572
5335 5323 5311 5300 5290 5281 5272 5265 5258 5251 5245 5239 5234 5230 5227 5227 5228 5231 5236 5242 5251 5260 5270 5279 5290 5303 5318 5335 5353 5375 5399 5425 5450 5474 5497 5520 5541 5561
5334 5322 5311 5300 5289 5279 5271 5264 5257 5251 5245 5239 5234 5230 5228 5227 5228 5230 5235 5241 5249 5257 5266 5276 5286 5298 5311 5327 5346 5367 5391 5415 5440 5465 5488 5510 5531 5552
5332 5320 5309 5299 5288 5278 5270 5263 5257 5251 5245 5240 5235 5231 5228 5227 5227 5230 5234 5240 5247 5255 5264 5273 5282 5292 5306 5321 5339 5359 5382 5406 5431 5456 5479 5500 5522 5542
5330 5319 5308 5297 5287 5277 5270 5263 5256 5251 5246 5241 5237 5233 5230 5228 5228 5230 5234 5239 5245 5253 5261 5269 5278 5289 5302 5316 5333 5353 5375 5398 5423 5448 5472 5493 5514 5535
5330 5318 5307 5297 5287 5278 5269 5263 5257 5252 5247 5242 5238 5235 5232 5230 5230 5231 5234 5238 5244 5251 5258 5266 5275 5285 5297 5310 5327 5347 5369 5393 5418 5442 5465 5486 5507 5529
5329 5318 5307 5297 5288 5279 5270 5263 5257 5252 5248 5243 5240 5237 5235 5233 5233 5234 5236 5239 5244 5250 5256 5264 5272 5282 5293 5307 5324 5343 5365 5389 5413 5437 5460 5481 5501 5522
5328 5317 5307 5297 5288 5279 5271 5264 5258 5253 5249 5245 5242 5240 5238 5237 5236 5237 5239 5242 5246 5251 5257 5263 5272 5282 5293 5307 5323 5342 5364 5386 5409 5432 5454 5477 5499 5519
5327 5317 5307 5297 5288 5279 5271 5264 5258 5254 5250 5247 5244 5243 5241 5241 5241 5242 5243 5246 5249 5254 5259 5266 5274 5283 5294 5308 5323 5342 5362 5384 5406 5429 5451 5473 5494 5513
5326 5316 5307 5297 5288 5280 5272 5265 5259 5254 5251 5248 5247 5245 5245 5245 5245 5246 5248 5250 5254 5258 5263 5269 5277 5286 5296 5308 5324 5342 5362 5383 5407 5429 5450 5468 5486 5503
5325 5316 5307 5298 5289 5280 5272 5265 5259 5255 5252 5250 5248 5248 5248 5248 5249 5250 5252 5255 5258 5262 5267 5274 5281 5289 5299 5312 5327 5344 5363 5383 5405 5427 5448 5469 5485 5502
5324 5315 5306 5297 5289 5280 5272 5265 5259 5255 5252 5250 5249 5249 5250 5251 5252 5254 5256 5259 5263 5267 5272 5279 5286 5294 5304 5316 5330 5347 5365 5384 5404 5423 5442 5463 5485 5505